Location: Absher
(46.5583°N, 107.9840°W)
Time: 11:30:30
(UTC+00:00)

ISS - Visible Passes

Search period start: 20 April 2024 00:00
Search period end: 30 April 2024 00:00
Orbit: 412 x 418 km, 51.6° (Epoch: 20 April)

Date Brightness Start Highest point End Pass type
(mag) Time Alt. Az. Time Alt. Az. Time Alt. Az.
20 Apr -1.1 11:18:16 10° SSE 11:20:01 14° SE 11:21:45 10° ESE visible
22 Apr -2.4 11:15:39 10° SSW 11:18:37 31° SE 11:21:37 10° ENE visible
23 Apr -1.8 10:28:35 16° SSE 10:29:49 20° SE 10:32:19 10° E visible
24 Apr -1.1 09:41:29 12° SE 09:41:29 12° SE 09:42:27 10° ESE visible
24 Apr -3.7 11:14:20 13° SW 11:17:12 72° SSE 11:20:32 10° ENE visible
25 Apr -3.2 10:27:07 32° SSW 10:28:11 45° SE 10:31:24 10° ENE visible
26 Apr -2.2 09:39:48 26° ESE 09:39:48 26° ESE 09:42:07 10° E visible
26 Apr -3.4 11:12:38 11° WSW 11:15:44 59° NNW 11:19:02 10° ENE visible
27 Apr -0.8 08:52:23 11° E 08:52:23 11° E 08:52:32 10° E visible
27 Apr -3.8 10:25:14 34° WSW 10:26:33 84° NNW 10:29:53 10° ENE visible
28 Apr -3.4 09:37:44 58° ESE 09:37:44 58° ESE 09:40:40 10° ENE visible
28 Apr -2.6 11:11:02 10° W 11:14:10 38° NNW 11:17:21 10° ENE visible
29 Apr -1.4 08:50:09 19° E 08:50:09 19° E 08:51:19 10° ENE visible
29 Apr -3.0 10:22:58 22° W 10:24:50 47° NNW 10:28:04 10° ENE visible
